TimeMDT,TemperatureF,Dew PointF,Humidity,Sea Level PressureIn,VisibilityMPH,Wind Direction,Wind SpeedMPH,Gust SpeedMPH,PrecipitationIn,Events,Conditions,WindDirDegrees,DateUTC
12:04 AM,53.6,23.0,30,30.30,10.0,SSW,3.5,-,N/A,,Overcast,200,2013-06-25 06:04:00
12:24 AM,53.6,23.0,30,30.31,7.0,SW,4.6,-,N/A,,Overcast,220,2013-06-25 06:24:00
12:43 AM,51.8,23.0,33,30.30,7.0,Calm,Calm,-,N/A,,Overcast,0,2013-06-25 06:43:00
1:05 AM,51.8,23.0,33,30.30,10.0,Calm,Calm,-,N/A,,Overcast,0,2013-06-25 07:05:00
1:24 AM,51.8,23.0,33,30.29,7.0,Calm,Calm,-,N/A,,Overcast,0,2013-06-25 07:24:00
1:45 AM,53.6,23.0,30,30.29,7.0,Calm,Calm,-,N/A,,Overcast,0,2013-06-25 07:45:00
2:05 AM,53.6,23.0,30,30.29,7.0,SSW,3.5,-,N/A,,Overcast,200,2013-06-25 08:05:00
2:25 AM,51.8,23.0,33,30.28,7.0,Calm,Calm,-,N/A,,Scattered Clouds,0,2013-06-25 08:25:00
2:45 AM,50.0,23.0,35,30.28,7.0,Calm,Calm,-,N/A,,Clear,0,2013-06-25 08:45:00
3:04 AM,50.0,21.2,32,30.28,7.0,South,3.5,-,N/A,,Scattered Clouds,190,2013-06-25 09:04:00
3:25 AM,51.8,21.2,30,30.28,7.0,Calm,Calm,-,N/A,,Scattered Clouds,0,2013-06-25 09:25:00
3:44 AM,50.0,21.2,32,30.28,7.0,Calm,Calm,-,N/A,,Scattered Clouds,0,2013-06-25 09:44:00
4:05 AM,50.0,21.2,32,30.28,7.0,SSW,3.5,-,N/A,,Scattered Clouds,200,2013-06-25 10:05:00
4:24 AM,50.0,21.2,32,30.30,7.0,Calm,Calm,-,N/A,,Clear,0,2013-06-25 10:24:00
4:45 AM,48.2,21.2,34,30.30,7.0,Calm,Calm,-,N/A,,Clear,0,2013-06-25 10:45:00
5:05 AM,46.4,21.2,37,30.31,7.0,Calm,Calm,-,N/A,,Clear,0,2013-06-25 11:05:00
5:25 AM,46.4,23.0,40,30.32,7.0,Calm,Calm,-,N/A,,Clear,0,2013-06-25 11:25:00
5:45 AM,46.4,23.0,40,30.33,7.0,Calm,Calm,-,N/A,,Clear,0,2013-06-25 11:45:00
6:05 AM,44.6,23.0,43,30.34,7.0,Calm,Calm,-,N/A,,Clear,0,2013-06-25 12:05:00
6:25 AM,44.6,24.8,46,30.34,5.0,Calm,Calm,-,N/A,,Haze,0,2013-06-25 12:25:00
6:44 AM,44.6,26.6,49,30.34,5.0,Calm,Calm,-,N/A,,Haze,0,2013-06-25 12:44:00
7:05 AM,44.6,26.6,49,30.35,7.0,Calm,Calm,-,N/A,,Clear,0,2013-06-25 13:05:00
7:25 AM,44.6,28.4,53,30.35,5.0,Calm,Calm,-,N/A,,Haze,0,2013-06-25 13:25:00
7:45 AM,46.4,30.2,53,30.36,7.0,Calm,Calm,-,N/A,,Clear,0,2013-06-25 13:45:00
8:05 AM,48.2,30.2,50,30.37,7.0,Calm,Calm,-,N/A,,Clear,0,2013-06-25 14:05:00
8:24 AM,50.0,32.0,50,30.38,7.0,Calm,Calm,-,N/A,,Clear,0,2013-06-25 14:24:00
8:45 AM,51.8,32.0,47,30.38,7.0,Calm,Calm,-,N/A,,Clear,0,2013-06-25 14:45:00
9:05 AM,51.8,32.0,47,30.39,7.0,Calm,Calm,-,N/A,,Clear,0,2013-06-25 15:05:00
9:25 AM,53.6,32.0,44,30.39,7.0,Calm,Calm,-,N/A,,Clear,0,2013-06-25 15:25:00
9:45 AM,55.4,32.0,41,30.40,10.0,Calm,Calm,-,N/A,,Clear,0,2013-06-25 15:45:00
10:05 AM,55.4,33.8,44,30.40,7.0,SW,3.5,-,N/A,,Clear,220,2013-06-25 16:05:00
10:25 AM,57.2,32.0,38,30.41,7.0,Calm,Calm,-,N/A,,Mostly Cloudy,0,2013-06-25 16:25:00
10:45 AM,59.0,32.0,36,30.41,7.0,Calm,Calm,-,N/A,,Mostly Cloudy,0,2013-06-25 16:45:00
11:05 AM,60.8,32.0,34,30.41,10.0,Calm,Calm,-,N/A,,Scattered Clouds,0,2013-06-25 17:05:00
11:25 AM,60.8,33.8,36,30.42,7.0,Calm,Calm,-,N/A,,Clear,0,2013-06-25 17:25:00
11:45 AM,62.6,32.0,32,30.43,7.0,Calm,Calm,-,N/A,,Clear,0,2013-06-25 17:45:00
12:05 PM,60.8,32.0,34,30.43,10.0,Calm,Calm,-,N/A,,Scattered Clouds,0,2013-06-25 18:05:00
12:19 PM,62.6,33.8,34,30.43,10.0,Calm,Calm,-,N/A,,Scattered Clouds,0,2013-06-25 18:19:00
4:35 PM,69.8,32.0,25,30.46,10.0,Calm,Calm,-,N/A,,Clear,0,2013-06-25 22:35:00
4:56 PM,69.8,33.8,27,30.46,10.0,Calm,Calm,-,N/A,,Clear,0,2013-06-25 22:56:00
5:16 PM,68.0,32.0,26,30.46,10.0,Calm,Calm,-,N/A,,Clear,0,2013-06-25 23:16:00
5:36 PM,68.0,32.0,26,30.46,10.0,Calm,Calm,-,N/A,,Clear,0,2013-06-25 23:36:00
5:56 PM,68.0,32.0,26,30.46,10.0,Calm,Calm,-,N/A,,Clear,0,2013-06-25 23:56:00
6:15 PM,68.0,32.0,26,30.46,10.0,Calm,Calm,-,N/A,,Clear,0,2013-06-26 00:15:00
6:35 PM,66.2,32.0,28,30.46,10.0,Calm,Calm,-,N/A,,Clear,0,2013-06-26 00:35:00
6:55 PM,64.4,32.0,30,30.46,10.0,Calm,Calm,-,N/A,,Clear,0,2013-06-26 00:55:00
7:16 PM,62.6,32.0,32,30.47,10.0,Calm,Calm,-,N/A,,Clear,0,2013-06-26 01:16:00
7:36 PM,60.8,32.0,34,30.48,10.0,Calm,Calm,-,N/A,,Clear,0,2013-06-26 01:36:00
7:56 PM,59.0,32.0,36,30.48,10.0,Calm,Calm,-,N/A,,Clear,0,2013-06-26 01:56:00
8:16 PM,57.2,32.0,38,30.49,7.0,Calm,Calm,-,N/A,,Clear,0,2013-06-26 02:16:00
8:35 PM,55.4,32.0,41,30.49,7.0,Calm,Calm,-,N/A,,Clear,0,2013-06-26 02:35:00
8:56 PM,53.6,32.0,44,30.49,7.0,Calm,Calm,-,N/A,,Clear,0,2013-06-26 02:56:00
9:15 PM,53.6,32.0,44,30.50,7.0,Calm,Calm,-,N/A,,Clear,0,2013-06-26 03:15:00
9:36 PM,53.6,32.0,44,30.50,7.0,Calm,Calm,-,N/A,,Clear,0,2013-06-26 03:36:00
9:56 PM,53.6,32.0,44,30.51,7.0,Calm,Calm,-,N/A,,Clear,0,2013-06-26 03:56:00
10:16 PM,51.8,32.0,47,30.52,7.0,Calm,Calm,-,N/A,,Clear,0,2013-06-26 04:16:00
10:36 PM,51.8,32.0,47,30.53,7.0,Calm,Calm,-,N/A,,Clear,0,2013-06-26 04:36:00
10:56 PM,53.6,32.0,44,30.52,7.0,Calm,Calm,-,N/A,,Clear,0,2013-06-26 04:56:00
11:16 PM,51.8,32.0,47,30.52,7.0,Calm,Calm,-,N/A,,Clear,0,2013-06-26 05:16:00
11:36 PM,53.6,30.2,41,30.52,7.0,Calm,Calm,-,N/A,,Clear,0,2013-06-26 05:36:00
11:56 PM,51.8,30.2,44,30.52,7.0,Calm,Calm,-,N/A,,Clear,0,2013-06-26 05:56:00